Location: Unspecified
(0.0000°N, 0.0000°E)
Time: 17:24:26
(UTC+00:00)

STARLINK 1026 - Pass Details

Date: 19 January 2020
Orbit: 347 x 352 km, 53.0° (Epoch: 22 January)

Event Time Altitude Azimuth Distance (km) Brightness Sun altitude
Exits shadow 04:42:10 27° 45° (NE) 701 4.3 -20.6°
Drops below altitude 10° 04:43:39 10° 39° (NE) 1,292 5.7 -20.3°
Sets 04:45:39 0° 37° (NE) 2,130 6.8 -19.8°
